This demonstration page uses our WeatherBlox Daily Observations layout. Learn more.

Left ArrowRight Arrow

Hourly Observations for June 22, 2016

Temp ( °F °C ) Dew Point ( °F °C ) Humidity (%) Winds ( mph kmh ) Pressure ( in mb ) Visibility ( mi km ) Precip ( " mm )
12:54 am 00:54 Clear 85 29.4 60 15.6 43 43 S 14 22 29.69 1006 10 16.0934 0 0
1:54 am 01:54 Clear 82 27.8 60 15.6 47 47 S 14 22 29.67 1005 10 16.0934 0 0
2:54 am 02:54 Clear 83 28.3 58 14.4 43 43 SSW 14 22 29.66 1005 10 16.0934 0 0
3:54 am 03:54 Clear 82 27.8 58 14.4 44 44 SSW 13 20 29.65 1004 10 16.0934 0 0
4:54 am 04:54 Clear 81 27.2 59 15 47 47 S 13 20 29.62 1003 10 16.0934 0 0
5:54 am 05:54 Clear 81 27.2 60 15.6 49 49 S 14 22 29.62 1003 10 16.0934 0 0
6:54 am 06:54 Sunny 80 26.7 61 16.1 52 52 SSW 15 24 29.61 1003 10 16.0934 0 0
7:54 am 07:54 Sunny 80 26.7 63 17.2 56 56 SW 9 15 29.66 1004 10 16.0934 0 0
8:54 am 08:54 Sunny 82 27.8 66 18.9 58 58 SSW 9 15 29.65 1004 10 16.0934 0 0
9:54 am 09:54 Sunny 86 30 66 18.9 51 51 WSW 14 22 29.65 1004 10 16.0934 0 0
10:54 am 10:54 Sunny 88 31.1 66 18.9 48 48 W 12 19 29.67 1005 10 16.0934 0 0
11:54 am 11:54 Sunny 91 32.8 65 18.3 42 42 NW 9 15 29.68 1005 10 16.0934 0 0
12:54 pm 12:54 Sunny 91 32.8 66 18.9 44 44 NNW 9 15 29.71 1006 10 16.0934 0 0
1:54 pm 13:54 Sunny 88 31.1 68 20 52 52 N 14 22 29.73 1007 10 16.0934 0 0
2:54 pm 14:54 Sunny 92 33.3 69 20.6 47 47 N 16 26 29.74 1007 10 16.0934 0 0
3:54 pm 15:54 Sunny 92 33.3 70 21.1 49 49 N 18 30 29.74 1007 10 16.0934 0 0
4:54 pm 16:54 Sunny 93 33.9 72 22.2 50 50 N 16 26 29.75 1008 10 16.0934 0 0
5:54 pm 17:54 Sunny 92 33.3 71 21.7 51 51 N 15 24 29.77 1008 10 16.0934 0 0
6:54 pm 18:54 Sunny 90 32.2 71 21.7 54 54 N 15 24 29.78 1009 10 16.0934 0 0
7:54 pm 19:54 Sunny 88 31.1 72 22.2 59 59 N 10 17 29.8 1009 10 16.0934 0 0
8:54 pm 20:54 Sunny 84 28.9 72 22.2 67 67 N 9 15 29.82 1010 10 16.0934 0 0
9:54 pm 21:54 Clear 83 28.3 71 21.7 67 67 N 10 17 29.85 1011 10 16.0934 0 0
10:54 pm 22:54 Clear 81 27.2 67 19.4 62 62 NNW 12 19 29.88 1012 10 16.0934 0 0
11:54 pm 23:54 Clear 78 25.6 59 15 52 52 NNW 13 20 29.9 1012 10 16.0934 0 0

Powered by AerisWeather